Time,TemperatureF,DewpointF,PressureIn,WindDirection,WindDirectionDegrees,WindSpeedMPH,WindSpeedGustMPH,Humidity,HourlyPrecipIn,Conditions,Clouds,dailyrainin,SoftwareType,DateUTC
2013-03-25 00:13:00,33.4,22.0,30.10,NNE,18,3.0,-999.0,64,-99.99,,,0.00,weatherlink.com 1.10,2013-03-25 05:13:00,
2013-03-25 00:28:00,33.5,22.0,30.10,NNE,13,6.0,-999.0,63,-99.99,,,0.00,weatherlink.com 1.10,2013-03-25 05:28:00,
2013-03-25 00:43:00,34.4,21.0,30.11,North,5,12.0,-999.0,58,-99.99,,,0.00,weatherlink.com 1.10,2013-03-25 05:43:00,
2013-03-25 00:58:00,33.9,21.0,30.12,North,355,6.0,-999.0,59,-99.99,,,0.00,weatherlink.com 1.10,2013-03-25 05:58:00,
2013-03-25 01:13:00,32.7,22.0,30.13,NNW,348,7.0,-999.0,64,-99.99,,,0.00,weatherlink.com 1.10,2013-03-25 06:13:00,
2013-03-25 01:28:00,31.9,22.0,30.14,North,350,5.0,-999.0,67,-99.99,,,0.00,weatherlink.com 1.10,2013-03-25 06:28:00,
2013-03-25 01:43:00,31.6,22.0,30.14,North,355,5.0,-999.0,69,-99.99,,,0.00,weatherlink.com 1.10,2013-03-25 06:43:00,
2013-03-25 01:58:00,31.2,22.0,30.15,NNW,348,5.0,-999.0,70,-99.99,,,0.00,weatherlink.com 1.10,2013-03-25 06:58:00,
2013-03-25 02:13:00,31.8,22.0,30.16,NNW,344,7.0,-999.0,67,-99.99,,,0.00,weatherlink.com 1.10,2013-03-25 07:13:00,
2013-03-25 02:28:00,31.8,22.0,30.16,North,351,10.0,-999.0,67,-99.99,,,0.00,weatherlink.com 1.10,2013-03-25 07:28:00,
2013-03-25 02:43:00,31.5,22.0,30.16,NNW,348,6.0,-999.0,68,-99.99,,,0.00,weatherlink.com 1.10,2013-03-25 07:43:00,
2013-03-25 02:58:00,30.9,21.0,30.17,NNW,348,4.0,-999.0,68,-99.99,,,0.00,weatherlink.com 1.10,2013-03-25 07:58:00,
2013-03-25 03:13:00,30.3,21.0,30.17,NNW,348,2.0,-999.0,69,-99.99,,,0.00,weatherlink.com 1.10,2013-03-25 08:13:00,
2013-03-25 03:29:00,29.8,21.0,30.16,NNW,348,3.0,-999.0,70,-99.99,,,0.00,weatherlink.com 1.10,2013-03-25 08:29:00,
2013-03-25 03:44:00,29.4,21.0,30.16,NNW,348,3.0,-999.0,71,-99.99,,,0.00,weatherlink.com 1.10,2013-03-25 08:44:00,
2013-03-25 03:59:00,29.2,21.0,30.16,NNW,348,3.0,-999.0,72,-99.99,,,0.00,weatherlink.com 1.10,2013-03-25 08:59:00,
2013-03-25 04:14:00,28.7,21.0,30.15,NNW,348,3.0,-999.0,74,-99.99,,,0.00,weatherlink.com 1.10,2013-03-25 09:14:00,
2013-03-25 04:29:00,28.8,21.0,30.15,NNW,348,4.0,-999.0,73,-99.99,,,0.00,weatherlink.com 1.10,2013-03-25 09:29:00,
2013-03-25 04:44:00,28.9,21.0,30.16,NNW,348,4.0,-999.0,73,-99.99,,,0.00,weatherlink.com 1.10,2013-03-25 09:44:00,
2013-03-25 04:59:00,28.8,21.0,30.16,NW,323,3.0,-999.0,73,-99.99,,,0.00,weatherlink.com 1.10,2013-03-25 09:59:00,
2013-03-25 05:14:00,28.4,21.0,30.17,NW,323,3.0,-999.0,75,-99.99,,,0.00,weatherlink.com 1.10,2013-03-25 10:14:00,
2013-03-25 05:29:00,28.1,21.0,30.17,NW,322,2.0,-999.0,76,-99.99,,,0.00,weatherlink.com 1.10,2013-03-25 10:29:00,
2013-03-25 05:44:00,27.9,21.0,30.18,NW,316,6.0,-999.0,76,-99.99,,,0.00,weatherlink.com 1.10,2013-03-25 10:44:00,
2013-03-25 05:59:00,26.9,21.0,30.18,NW,310,2.0,-999.0,77,-99.99,,,0.00,weatherlink.com 1.10,2013-03-25 10:59:00,
2013-03-25 06:14:00,26.7,21.0,30.19,NW,310,2.0,-999.0,78,-99.99,,,0.00,weatherlink.com 1.10,2013-03-25 11:14:00,
2013-03-25 06:29:00,26.9,21.0,30.20,NW,310,2.0,-999.0,77,-99.99,,,0.00,weatherlink.com 1.10,2013-03-25 11:29:00,
2013-03-25 06:44:00,26.8,21.0,30.20,NW,310,1.0,-999.0,77,-99.99,,,0.00,weatherlink.com 1.10,2013-03-25 11:44:00,
2013-03-25 06:59:00,26.9,20.0,30.21,NW,310,1.0,-999.0,76,-99.99,,,0.00,weatherlink.com 1.10,2013-03-25 11:59:00,
2013-03-25 07:14:00,26.7,20.0,30.21,NW,310,0.0,-999.0,76,-99.99,,,0.00,weatherlink.com 1.10,2013-03-25 12:14:00,
2013-03-25 07:29:00,26.4,20.0,30.22,NW,310,3.0,-999.0,77,-99.99,,,0.00,weatherlink.com 1.10,2013-03-25 12:29:00,
2013-03-25 07:44:00,26.5,20.0,30.23,NW,310,1.0,-999.0,77,-99.99,,,0.00,weatherlink.com 1.10,2013-03-25 12:44:00,
2013-03-25 07:59:00,27.8,21.0,30.23,NW,310,2.0,-999.0,77,-99.99,,,0.00,weatherlink.com 1.10,2013-03-25 12:59:00,
2013-03-25 08:14:00,28.9,22.0,30.24,NW,313,10.0,-999.0,75,-99.99,,,0.00,weatherlink.com 1.10,2013-03-25 13:14:00,
2013-03-25 08:29:00,29.6,22.0,30.25,WNW,302,5.0,-999.0,74,-99.99,,,0.00,weatherlink.com 1.10,2013-03-25 13:29:00,
2013-03-25 08:44:00,30.3,23.0,30.25,WNW,300,5.0,-999.0,75,-99.99,,,0.00,weatherlink.com 1.10,2013-03-25 13:44:00,
2013-03-25 08:59:00,32.2,24.0,30.26,NW,316,4.0,-999.0,73,-99.99,,,0.00,weatherlink.com 1.10,2013-03-25 13:59:00,
2013-03-25 09:14:00,34.3,25.0,30.27,NW,311,11.0,-999.0,68,-99.99,,,0.00,weatherlink.com 1.10,2013-03-25 14:14:00,
2013-03-25 09:29:00,35.4,24.0,30.28,NNW,336,10.0,-999.0,64,-99.99,,,0.00,weatherlink.com 1.10,2013-03-25 14:29:00,
2013-03-25 09:44:00,36.5,24.0,30.28,NNW,341,17.0,-999.0,60,-99.99,,,0.00,weatherlink.com 1.10,2013-03-25 14:44:00,
2013-03-25 09:59:00,37.1,25.0,30.28,NNW,341,11.0,-999.0,61,-99.99,,,0.00,weatherlink.com 1.10,2013-03-25 14:59:00,
2013-03-25 10:14:00,37.9,24.0,30.28,North,350,19.0,-999.0,57,-99.99,,,0.00,weatherlink.com 1.10,2013-03-25 15:14:00,
2013-03-25 10:29:00,38.7,24.0,30.28,North,349,15.0,-999.0,57,-99.99,,,0.00,weatherlink.com 1.10,2013-03-25 15:29:00,
2013-03-25 10:45:00,39.4,24.0,30.29,North,10,12.0,-999.0,54,-99.99,,,0.00,weatherlink.com 1.10,2013-03-25 15:45:00,
2013-03-25 11:00:00,40.2,23.0,30.29,NW,325,17.0,-999.0,51,-99.99,,,0.00,weatherlink.com 1.10,2013-03-25 16:00:00,
2013-03-25 11:15:00,41.1,25.0,30.29,NNW,338,17.0,-999.0,54,-99.99,,,0.00,weatherlink.com 1.10,2013-03-25 16:15:00,
2013-03-25 11:30:00,41.5,24.0,30.30,NNW,331,11.0,-999.0,51,-99.99,,,0.00,weatherlink.com 1.10,2013-03-25 16:30:00,
2013-03-25 11:45:00,42.3,23.0,30.29,NNW,333,16.0,-999.0,47,-99.99,,,0.00,weatherlink.com 1.10,2013-03-25 16:45:00,
2013-03-25 12:00:00,42.6,22.0,30.29,NNW,341,15.0,-999.0,44,-99.99,,,0.00,weatherlink.com 1.10,2013-03-25 17:00:00,
2013-03-25 12:15:00,43.3,23.0,30.28,NW,311,17.0,-999.0,44,-99.99,,,0.00,weatherlink.com 1.10,2013-03-25 17:15:00,
2013-03-25 12:30:00,43.4,21.0,30.28,NNW,333,18.0,-999.0,41,-99.99,,,0.00,weatherlink.com 1.10,2013-03-25 17:30:00,
2013-03-25 12:45:00,44.1,23.0,30.28,NNW,327,15.0,-999.0,44,-99.99,,,0.00,weatherlink.com 1.10,2013-03-25 17:45:00,
2013-03-25 13:00:00,44.9,24.0,30.27,NNW,336,15.0,-999.0,44,-99.99,,,0.00,weatherlink.com 1.10,2013-03-25 18:00:00,
2013-03-25 13:15:00,45.2,21.0,30.27,NW,315,18.0,-999.0,39,-99.99,,,0.00,weatherlink.com 1.10,2013-03-25 18:15:00,
2013-03-25 13:30:00,46.1,23.0,30.25,NNW,344,21.0,-999.0,40,-99.99,,,0.00,weatherlink.com 1.10,2013-03-25 18:30:00,
2013-03-25 13:45:00,46.3,22.0,30.25,NNW,331,14.0,-999.0,38,-99.99,,,0.00,weatherlink.com 1.10,2013-03-25 18:45:00,
2013-03-25 14:00:00,46.4,21.0,30.25,NW,325,17.0,-999.0,37,-99.99,,,0.00,weatherlink.com 1.10,2013-03-25 19:00:00,
2013-03-25 14:15:00,47.0,22.0,30.24,NW,325,16.0,-999.0,37,-99.99,,,0.00,weatherlink.com 1.10,2013-03-25 19:15:00,
2013-03-25 14:30:00,47.3,22.0,30.24,NNW,348,23.0,-999.0,37,-99.99,,,0.00,weatherlink.com 1.10,2013-03-25 19:30:00,
2013-03-25 14:45:00,47.7,22.0,30.24,NNW,335,22.0,-999.0,36,-99.99,,,0.00,weatherlink.com 1.10,2013-03-25 19:45:00,
2013-03-25 15:00:00,48.4,24.0,30.23,NNW,332,10.0,-999.0,39,-99.99,,,0.00,weatherlink.com 1.10,2013-03-25 20:00:00,
2013-03-25 15:15:00,47.6,22.0,30.23,North,355,13.0,-999.0,37,-99.99,,,0.00,weatherlink.com 1.10,2013-03-25 20:15:00,
2013-03-25 15:30:00,47.8,23.0,30.23,NW,322,9.0,-999.0,38,-99.99,,,0.00,weatherlink.com 1.10,2013-03-25 20:30:00,
2013-03-25 15:45:00,47.4,21.0,30.22,North,360,20.0,-999.0,35,-99.99,,,0.00,weatherlink.com 1.10,2013-03-25 20:45:00,
2013-03-25 16:00:00,47.9,21.0,30.22,NNW,333,14.0,-999.0,35,-99.99,,,0.00,weatherlink.com 1.10,2013-03-25 21:00:00,
2013-03-25 16:15:00,48.6,23.0,30.22,NNW,330,13.0,-999.0,36,-99.99,,,0.00,weatherlink.com 1.10,2013-03-25 21:15:00,
2013-03-25 16:30:00,48.2,19.0,30.21,North,360,25.0,-999.0,32,-99.99,,,0.00,weatherlink.com 1.10,2013-03-25 21:30:00,
2013-03-25 16:45:00,48.5,21.0,30.21,North,360,18.0,-999.0,34,-99.99,,,0.00,weatherlink.com 1.10,2013-03-25 21:45:00,
2013-03-25 17:00:00,48.1,21.0,30.21,NNW,348,14.0,-999.0,35,-99.99,,,0.00,weatherlink.com 1.10,2013-03-25 22:00:00,
2013-03-25 17:15:00,48.6,21.0,30.21,NNW,337,20.0,-999.0,33,-99.99,,,0.00,weatherlink.com 1.10,2013-03-25 22:15:00,
2013-03-25 17:30:00,48.4,21.0,30.21,NNW,343,18.0,-999.0,34,-99.99,,,0.00,weatherlink.com 1.10,2013-03-25 22:30:00,
2013-03-25 17:45:00,48.2,19.0,30.21,NW,323,18.0,-999.0,31,-99.99,,,0.00,weatherlink.com 1.10,2013-03-25 22:45:00,
2013-03-25 18:00:00,47.9,21.0,30.21,NNW,342,13.0,-999.0,34,-99.99,,,0.00,weatherlink.com 1.10,2013-03-25 23:00:00,
2013-03-25 18:15:00,47.4,19.0,30.21,North,11,17.0,-999.0,33,-99.99,,,0.00,weatherlink.com 1.10,2013-03-25 23:15:00,
2013-03-25 18:30:00,47.2,20.0,30.22,North,355,13.0,-999.0,34,-99.99,,,0.00,weatherlink.com 1.10,2013-03-25 23:30:00,
2013-03-25 18:45:00,46.5,19.0,30.22,NNE,13,14.0,-999.0,33,-99.99,,,0.00,weatherlink.com 1.10,2013-03-25 23:45:00,
2013-03-25 19:00:00,45.8,18.0,30.23,NNW,346,14.0,-999.0,33,-99.99,,,0.00,weatherlink.com 1.10,2013-03-26 00:00:00,
2013-03-25 19:15:00,45.0,19.0,30.24,North,355,13.0,-999.0,36,-99.99,,,0.00,weatherlink.com 1.10,2013-03-26 00:15:00,
2013-03-25 19:30:00,44.4,18.0,30.24,NNW,348,17.0,-999.0,35,-99.99,,,0.00,weatherlink.com 1.10,2013-03-26 00:30:00,
2013-03-25 19:45:00,43.0,19.0,30.25,NNW,346,9.0,-999.0,39,-99.99,,,0.00,weatherlink.com 1.10,2013-03-26 00:45:00,
2013-03-25 20:00:00,42.6,19.0,30.25,North,355,10.0,-999.0,39,-99.99,,,0.00,weatherlink.com 1.10,2013-03-26 01:00:00,
2013-03-25 20:15:00,42.3,19.0,30.26,NNW,342,7.0,-999.0,39,-99.99,,,0.00,weatherlink.com 1.10,2013-03-26 01:15:00,
2013-03-25 20:30:00,41.9,18.0,30.27,North,355,10.0,-999.0,38,-99.99,,,0.00,weatherlink.com 1.10,2013-03-26 01:30:00,
2013-03-25 20:45:00,40.6,19.0,30.27,North,355,5.0,-999.0,42,-99.99,,,0.00,weatherlink.com 1.10,2013-03-26 01:45:00,
2013-03-25 21:00:00,39.8,19.0,30.28,North,5,10.0,-999.0,44,-99.99,,,0.00,weatherlink.com 1.10,2013-03-26 02:00:00,
2013-03-25 21:15:00,39.7,19.0,30.28,North,350,9.0,-999.0,44,-99.99,,,0.00,weatherlink.com 1.10,2013-03-26 02:15:00,
2013-03-25 21:30:00,39.3,20.0,30.29,North,360,10.0,-999.0,46,-99.99,,,0.00,weatherlink.com 1.10,2013-03-26 02:30:00,
2013-03-25 21:45:00,38.4,20.0,30.30,North,360,6.0,-999.0,47,-99.99,,,0.00,weatherlink.com 1.10,2013-03-26 02:45:00,
2013-03-25 22:00:00,37.1,20.0,30.30,North,360,4.0,-999.0,51,-99.99,,,0.00,weatherlink.com 1.10,2013-03-26 03:00:00,
2013-03-25 22:15:00,36.4,20.0,30.31,North,360,5.0,-999.0,51,-99.99,,,0.00,weatherlink.com 1.10,2013-03-26 03:15:00,
2013-03-25 22:30:00,35.8,20.0,30.32,North,360,3.0,-999.0,53,-99.99,,,0.00,weatherlink.com 1.10,2013-03-26 03:30:00,
2013-03-25 22:45:00,35.3,20.0,30.32,North,360,1.0,-999.0,54,-99.99,,,0.00,weatherlink.com 1.10,2013-03-26 03:45:00,
2013-03-25 23:00:00,34.4,20.0,30.32,North,360,1.0,-999.0,55,-99.99,,,0.00,weatherlink.com 1.10,2013-03-26 04:00:00,
2013-03-25 23:15:00,34.2,20.0,30.32,North,360,2.0,-999.0,56,-99.99,,,0.00,weatherlink.com 1.10,2013-03-26 04:15:00,
2013-03-25 23:30:00,34.2,19.0,30.32,North,360,2.0,-999.0,55,-99.99,,,0.00,weatherlink.com 1.10,2013-03-26 04:30:00,
2013-03-25 23:45:00,34.4,19.0,30.32,North,360,0.0,-999.0,54,-99.99,,,0.00,weatherlink.com 1.10,2013-03-26 04:45:00,